owner,sensor,date,latitude,longitude,vertical_datum,mass_concentration_of_oxygen_in_sea_water,qcFlag 
SCCF RECON,ioos:station:SCCF:51:1,2010-10-01T00:00:00Z,26.5545,-82.1715,1.827,6.83,1111122 
SCCF RECON,ioos:station:SCCF:51:1,2010-10-01T01:00:00Z,26.5545,-82.1715,1.866,6.83,1111122 
SCCF RECON,ioos:station:SCCF:51:1,2010-10-01T02:00:00Z,26.5545,-82.1715,1.873,6.85,1111122 
SCCF RECON,ioos:station:SCCF:51:1,2010-10-01T03:00:00Z,26.5545,-82.1715,1.865,6.75,1111122 
SCCF RECON,ioos:station:SCCF:51:1,2010-10-01T04:00:00Z,26.5545,-82.1715,1.866,6.87,1111122 
SCCF RECON,ioos:station:SCCF:51:1,2010-10-01T05:00:00Z,26.5545,-82.1715,1.872,6.87,1111122 
SCCF RECON,ioos:station:SCCF:51:1,2010-10-01T06:00:00Z,26.5545,-82.1715,1.881,6.38,1111122 
SCCF RECON,ioos:station:SCCF:51:1,2010-10-01T07:00:00Z,26.5545,-82.1715,1.906,6.3,1111122 
SCCF RECON,ioos:station:SCCF:51:1,2010-10-01T08:00:00Z,26.5545,-82.1715,1.942,5.93,1111122 
SCCF RECON,ioos:station:SCCF:51:1,2010-10-01T09:00:00Z,26.5545,-82.1715,1.991,5.98,1111122 
SCCF RECON,ioos:station:SCCF:51:1,2010-10-01T10:00:00Z,26.5545,-82.1715,2.021,5.48,1111122 
SCCF RECON,ioos:station:SCCF:51:1,2010-10-01T11:00:00Z,26.5545,-82.1715,2.019,5.2,1111122 
SCCF RECON,ioos:station:SCCF:51:1,2010-10-01T12:00:00Z,26.5545,-82.1715,1.979,5.71,1111122 
SCCF RECON,ioos:station:SCCF:51:1,2010-10-01T13:00:00Z,26.5545,-82.1715,1.91,5.62,1111122 
SCCF RECON,ioos:station:SCCF:51:1,2010-10-01T14:00:00Z,26.5545,-82.1715,1.81,5.77,1111122 
SCCF RECON,ioos:station:SCCF:51:1,2010-10-01T15:00:00Z,26.5545,-82.1715,1.71,6.02,1111122 
SCCF RECON,ioos:station:SCCF:51:1,2010-10-01T16:00:00Z,26.5545,-82.1715,1.611,6.31,1111122 
SCCF RECON,ioos:station:SCCF:51:1,2010-10-01T17:00:00Z,26.5545,-82.1715,1.52,6.46,1111122 
SCCF RECON,ioos:station:SCCF:51:1,2010-10-01T18:00:00Z,26.5545,-82.1715,1.435,6.9,1111122 
SCCF RECON,ioos:station:SCCF:51:1,2010-10-01T19:00:00Z,26.5545,-82.1715,1.41,6.8,1111122 
SCCF RECON,ioos:station:SCCF:51:1,2010-10-01T20:00:00Z,26.5545,-82.1715,1.451,6.87,1111122 
SCCF RECON,ioos:station:SCCF:51:1,2010-10-01T21:00:00Z,26.5545,-82.1715,1.531,6.86,1111122 
SCCF RECON,ioos:station:SCCF:51:1,2010-10-01T22:00:00Z,26.5545,-82.1715,1.633,6.87,1111122 
SCCF RECON,ioos:station:SCCF:51:1,2010-10-01T23:00:00Z,26.5545,-82.1715,1.719,6.86,1111122 
SCCF RECON,ioos:station:SCCF:51:1,2010-10-02T00:00:00Z,26.5545,-82.1715,1.794,6.52,1111122 
SCCF RECON,ioos:station:SCCF:51:1,2010-10-02T01:00:00Z,26.5545,-82.1715,1.847,6.33,1111122 
SCCF RECON,ioos:station:SCCF:51:1,2010-10-02T02:00:00Z,26.5545,-82.1715,1.877,6.14,1111122 
SCCF RECON,ioos:station:SCCF:51:1,2010-10-02T03:00:00Z,26.5545,-82.1715,1.882,6.08,1111122 
SCCF RECON,ioos:station:SCCF:51:1,2010-10-02T04:00:00Z,26.5545,-82.1715,1.864,6.07,1111122 
SCCF RECON,ioos:station:SCCF:51:1,2010-10-02T05:00:00Z,26.5545,-82.1715,1.835,5.89,1111122 
SCCF RECON,ioos:station:SCCF:51:1,2010-10-02T06:00:00Z,26.5545,-82.1715,1.831,5.84,1111122 
SCCF RECON,ioos:station:SCCF:51:1,2010-10-02T07:00:00Z,26.5545,-82.1715,1.838,6.52,1111122 
SCCF RECON,ioos:station:SCCF:51:1,2010-10-02T08:00:00Z,26.5545,-82.1715,1.867,6.09,1111122 
SCCF RECON,ioos:station:SCCF:51:1,2010-10-02T09:00:00Z,26.5545,-82.1715,1.908,5.94,1111122 
SCCF RECON,ioos:station:SCCF:51:1,2010-10-02T10:00:00Z,26.5545,-82.1715,1.964,6.4,1111122 
SCCF RECON,ioos:station:SCCF:51:1,2010-10-02T11:00:00Z,26.5545,-82.1715,2.018,5.8,1111122 
SCCF RECON,ioos:station:SCCF:51:1,2010-10-02T12:00:00Z,26.5545,-82.1715,2.057,5.83,1111122 
SCCF RECON,ioos:station:SCCF:51:1,2010-10-02T13:00:00Z,26.5545,-82.1715,2.048,5.61,1111122 
SCCF RECON,ioos:station:SCCF:51:1,2010-10-02T14:00:00Z,26.5545,-82.1715,1.997,5.85,1111122 
SCCF RECON,ioos:station:SCCF:51:1,2010-10-02T15:00:00Z,26.5545,-82.1715,1.91,6.3,1111122 
SCCF RECON,ioos:station:SCCF:51:1,2010-10-02T16:00:00Z,26.5545,-82.1715,1.802,6.66,1111122 
SCCF RECON,ioos:station:SCCF:51:1,2010-10-02T17:00:00Z,26.5545,-82.1715,1.686,6.96,1111122 
SCCF RECON,ioos:station:SCCF:51:1,2010-10-02T18:00:00Z,26.5545,-82.1715,1.57,6.95,1111122 
SCCF RECON,ioos:station:SCCF:51:1,2010-10-02T19:00:00Z,26.5545,-82.1715,1.482,6.92,1111122 
SCCF RECON,ioos:station:SCCF:51:1,2010-10-02T20:00:00Z,26.5545,-82.1715,1.452,6.9,1111122 
SCCF RECON,ioos:station:SCCF:51:1,2010-10-02T21:00:00Z,26.5545,-82.1715,1.503,6.88,1111122 
SCCF RECON,ioos:station:SCCF:51:1,2010-10-02T22:00:00Z,26.5545,-82.1715,1.584,6.89,1111122 
SCCF RECON,ioos:station:SCCF:51:1,2010-10-02T23:00:00Z,26.5545,-82.1715,1.68,6.88,1111122 
SCCF RECON,ioos:station:SCCF:51:1,2010-10-03T00:00:00Z,26.5545,-82.1715,1.775,6.88,1111122 
SCCF RECON,ioos:station:SCCF:51:1,2010-10-03T01:00:00Z,26.5545,-82.1715,1.848,6.67,1111122 
SCCF RECON,ioos:station:SCCF:51:1,2010-10-03T02:00:00Z,26.5545,-82.1715,1.904,6.47,1111122 
SCCF RECON,ioos:station:SCCF:51:1,2010-10-03T03:00:00Z,26.5545,-82.1715,1.937,6.14,1111122 
SCCF RECON,ioos:station:SCCF:51:1,2010-10-03T04:00:00Z,26.5545,-82.1715,1.923,6.22,1111122 
SCCF RECON,ioos:station:SCCF:51:1,2010-10-03T05:00:00Z,26.5545,-82.1715,1.872,6.12,1111122 
SCCF RECON,ioos:station:SCCF:51:1,2010-10-03T06:00:00Z,26.5545,-82.1715,1.804,6.06,1111122 
SCCF RECON,ioos:station:SCCF:51:1,2010-10-03T07:00:00Z,26.5545,-82.1715,1.75,6.15,1111122 
SCCF RECON,ioos:station:SCCF:51:1,2010-10-03T08:00:00Z,26.5545,-82.1715,1.735,6.43,1111122 
SCCF RECON,ioos:station:SCCF:51:1,2010-10-03T09:00:00Z,26.5545,-82.1715,1.773,6.44,1111122 
SCCF RECON,ioos:station:SCCF:51:1,2010-10-03T10:00:00Z,26.5545,-82.1715,1.841,6.04,1111122 
SCCF RECON,ioos:station:SCCF:51:1,2010-10-03T11:00:00Z,26.5545,-82.1715,1.925,6.43,1111122 
SCCF RECON,ioos:station:SCCF:51:1,2010-10-03T12:00:00Z,26.5545,-82.1715,2.009,6.15,1111122 
SCCF RECON,ioos:station:SCCF:51:1,2010-10-03T13:00:00Z,26.5545,-82.1715,2.065,5.81,1111122 
SCCF RECON,ioos:station:SCCF:51:1,2010-10-03T14:00:00Z,26.5545,-82.1715,2.089,5.9,1111122 
SCCF RECON,ioos:station:SCCF:51:1,2010-10-03T15:00:00Z,26.5545,-82.1715,2.034,6.16,1111122 
SCCF RECON,ioos:station:SCCF:51:1,2010-10-03T16:00:00Z,26.5545,-82.1715,1.952,6.44,1111122 
SCCF RECON,ioos:station:SCCF:51:1,2010-10-03T17:00:00Z,26.5545,-82.1715,1.837,6.94,1111122 
SCCF RECON,ioos:station:SCCF:51:1,2010-10-03T18:00:00Z,26.5545,-82.1715,1.698,6.95,1111122 
SCCF RECON,ioos:station:SCCF:51:1,2010-10-03T19:00:00Z,26.5545,-82.1715,1.577,6.94,1111122 
SCCF RECON,ioos:station:SCCF:51:1,2010-10-03T20:00:00Z,26.5545,-82.1715,1.49,6.93,1111122 
SCCF RECON,ioos:station:SCCF:51:1,2010-10-03T21:00:00Z,26.5545,-82.1715,1.463,6.93,1111122 
SCCF RECON,ioos:station:SCCF:51:1,2010-10-03T22:00:00Z,26.5545,-82.1715,1.502,6.94,1111122 
SCCF RECON,ioos:station:SCCF:51:1,2010-10-03T23:00:00Z,26.5545,-82.1715,1.583,6.97,1111122 
SCCF RECON,ioos:station:SCCF:51:1,2010-10-04T00:00:00Z,26.5545,-82.1715,1.678,6.99,1111122 
SCCF RECON,ioos:station:SCCF:51:1,2010-10-04T01:00:00Z,26.5545,-82.1715,1.795,6.74,1111122 
SCCF RECON,ioos:station:SCCF:51:1,2010-10-04T02:00:00Z,26.5545,-82.1715,1.894,6.62,1111122 
SCCF RECON,ioos:station:SCCF:51:1,2010-10-04T03:00:00Z,26.5545,-82.1715,1.951,6.64,1111122 
SCCF RECON,ioos:station:SCCF:51:1,2010-10-04T04:00:00Z,26.5545,-82.1715,1.953,6.24,1111122 
SCCF RECON,ioos:station:SCCF:51:1,2010-10-04T05:00:00Z,26.5545,-82.1715,1.886,6.43,1111122 
SCCF RECON,ioos:station:SCCF:51:1,2010-10-04T06:00:00Z,26.5545,-82.1715,1.8,6.37,1111122 
SCCF RECON,ioos:station:SCCF:51:1,2010-10-04T07:00:00Z,26.5545,-82.1715,1.704,6.43,1111122 
SCCF RECON,ioos:station:SCCF:51:1,2010-10-04T08:00:00Z,26.5545,-82.1715,1.631,6.62,1111122 
SCCF RECON,ioos:station:SCCF:51:1,2010-10-04T09:00:00Z,26.5545,-82.1715,1.607,6.59,1111122 
SCCF RECON,ioos:station:SCCF:51:1,2010-10-04T10:00:00Z,26.5545,-82.1715,1.652,6.46,1111122 
SCCF RECON,ioos:station:SCCF:51:1,2010-10-04T11:00:00Z,26.5545,-82.1715,1.73,6.33,1111122 
SCCF RECON,ioos:station:SCCF:51:1,2010-10-04T12:00:00Z,26.5545,-82.1715,1.837,5.91,1111122 
SCCF RECON,ioos:station:SCCF:51:1,2010-10-04T13:00:00Z,26.5545,-82.1715,1.958,5.91,1111122 
SCCF RECON,ioos:station:SCCF:51:1,2010-10-04T14:00:00Z,26.5545,-82.1715,2.05,6.12,1111122 
SCCF RECON,ioos:station:SCCF:51:1,2010-10-04T15:00:00Z,26.5545,-82.1715,2.093,5.87,1111122 
SCCF RECON,ioos:station:SCCF:51:1,2010-10-04T16:00:00Z,26.5545,-82.1715,2.054,6.47,1111122 
SCCF RECON,ioos:station:SCCF:51:1,2010-10-04T17:00:00Z,26.5545,-82.1715,1.962,6.81,1111122 
SCCF RECON,ioos:station:SCCF:51:1,2010-10-04T18:00:00Z,26.5545,-82.1715,1.83,7.07,1111122 
SCCF RECON,ioos:station:SCCF:51:1,2010-10-04T19:00:00Z,26.5545,-82.1715,1.69,7.08,1111122 
SCCF RECON,ioos:station:SCCF:51:1,2010-10-04T20:00:00Z,26.5545,-82.1715,1.576,7.07,1111122 
SCCF RECON,ioos:station:SCCF:51:1,2010-10-04T21:00:00Z,26.5545,-82.1715,1.485,7.08,1111122 
SCCF RECON,ioos:station:SCCF:51:1,2010-10-04T22:00:00Z,26.5545,-82.1715,1.457,7.09,1111122 
SCCF RECON,ioos:station:SCCF:51:1,2010-10-04T23:00:00Z,26.5545,-82.1715,1.53,7.1,1111122 
SCCF RECON,ioos:station:SCCF:51:1,2010-10-05T00:00:00Z,26.5545,-82.1715,1.619,7.11,1111122 
SCCF RECON,ioos:station:SCCF:51:1,2010-10-05T01:00:00Z,26.5545,-82.1715,1.741,7.07,1111122 
SCCF RECON,ioos:station:SCCF:51:1,2010-10-05T02:00:00Z,26.5545,-82.1715,1.857,6.93,1111122 
SCCF RECON,ioos:station:SCCF:51:1,2010-10-05T03:00:00Z,26.5545,-82.1715,1.946,6.86,1111122 
SCCF RECON,ioos:station:SCCF:51:1,2010-10-05T04:00:00Z,26.5545,-82.1715,1.987,6.49,1111122 
SCCF RECON,ioos:station:SCCF:51:1,2010-10-05T05:00:00Z,26.5545,-82.1715,1.944,6.52,1111122 
SCCF RECON,ioos:station:SCCF:51:1,2010-10-05T06:00:00Z,26.5545,-82.1715,1.859,6.6,1111122 
SCCF RECON,ioos:station:SCCF:51:1,2010-10-05T07:00:00Z,26.5545,-82.1715,1.751,6.59,1111122 
SCCF RECON,ioos:station:SCCF:51:1,2010-10-05T08:00:00Z,26.5545,-82.1715,1.64,6.58,1111122 
SCCF RECON,ioos:station:SCCF:51:1,2010-10-05T09:00:00Z,26.5545,-82.1715,1.556,6.7,1111122 
SCCF RECON,ioos:station:SCCF:51:1,2010-10-05T10:00:00Z,26.5545,-82.1715,1.542,6.74,1111122 
SCCF RECON,ioos:station:SCCF:51:1,2010-10-05T11:00:00Z,26.5545,-82.1715,1.61,6.61,1111122 
SCCF RECON,ioos:station:SCCF:51:1,2010-10-05T12:00:00Z,26.5545,-82.1715,1.711,6.45,1111122 
SCCF RECON,ioos:station:SCCF:51:1,2010-10-05T13:00:00Z,26.5545,-82.1715,1.841,6.29,1111122 
SCCF RECON,ioos:station:SCCF:51:1,2010-10-05T14:00:00Z,26.5545,-82.1715,1.971,6.14,1111122 
SCCF RECON,ioos:station:SCCF:51:1,2010-10-05T15:00:00Z,26.5545,-82.1715,2.061,6.2,1111122 
SCCF RECON,ioos:station:SCCF:51:1,2010-10-05T16:00:00Z,26.5545,-82.1715,2.095,6.1,1111122 
SCCF RECON,ioos:station:SCCF:51:1,2010-10-05T17:00:00Z,26.5545,-82.1715,2.03,6.46,1111122 
SCCF RECON,ioos:station:SCCF:51:1,2010-10-05T18:00:00Z,26.5545,-82.1715,1.918,6.89,1111122 
SCCF RECON,ioos:station:SCCF:51:1,2010-10-05T19:00:00Z,26.5545,-82.1715,1.79,7.14,1111122 
SCCF RECON,ioos:station:SCCF:51:1,2010-10-05T20:00:00Z,26.5545,-82.1715,1.669,7.16,1111122 
SCCF RECON,ioos:station:SCCF:51:1,2010-10-05T21:00:00Z,26.5545,-82.1715,1.578,7.17,1111122 
SCCF RECON,ioos:station:SCCF:51:1,2010-10-05T22:00:00Z,26.5545,-82.1715,1.542,7.17,1111122 
SCCF RECON,ioos:station:SCCF:51:1,2010-10-05T23:00:00Z,26.5545,-82.1715,1.567,7.17,1111122 
SCCF RECON,ioos:station:SCCF:51:1,2010-10-06T00:00:00Z,26.5545,-82.1715,1.644,7.18,1111122 
SCCF RECON,ioos:station:SCCF:51:1,2010-10-06T01:00:00Z,26.5545,-82.1715,1.763,7.15,1111122 
SCCF RECON,ioos:station:SCCF:51:1,2010-10-06T02:00:00Z,26.5545,-82.1715,1.896,6.41,1111122 
SCCF RECON,ioos:station:SCCF:51:1,2010-10-06T03:00:00Z,26.5545,-82.1715,2.002,6.46,1111122 
SCCF RECON,ioos:station:SCCF:51:1,2010-10-06T04:00:00Z,26.5545,-82.1715,2.035,6.8,1111122 
SCCF RECON,ioos:station:SCCF:51:1,2010-10-06T05:00:00Z,26.5545,-82.1715,1.997,6.44,1111122 
SCCF RECON,ioos:station:SCCF:51:1,2010-10-06T06:00:00Z,26.5545,-82.1715,1.917,6.23,1111122 
SCCF RECON,ioos:station:SCCF:51:1,2010-10-06T07:00:00Z,26.5545,-82.1715,1.792,6.65,1111122 
SCCF RECON,ioos:station:SCCF:51:1,2010-10-06T08:00:00Z,26.5545,-82.1715,1.648,6.8,1111122 
SCCF RECON,ioos:station:SCCF:51:1,2010-10-06T09:00:00Z,26.5545,-82.1715,1.527,6.78,1111122 
SCCF RECON,ioos:station:SCCF:51:1,2010-10-06T10:00:00Z,26.5545,-82.1715,1.442,6.67,1111122 
SCCF RECON,ioos:station:SCCF:51:1,2010-10-06T11:00:00Z,26.5545,-82.1715,1.417,6.5,1111122 
SCCF RECON,ioos:station:SCCF:51:1,2010-10-06T12:00:00Z,26.5545,-82.1715,1.484,6.59,1111122 
SCCF RECON,ioos:station:SCCF:51:1,2010-10-06T13:00:00Z,26.5545,-82.1715,1.581,6.59,1111122 
SCCF RECON,ioos:station:SCCF:51:1,2010-10-06T14:00:00Z,26.5545,-82.1715,1.718,6.56,1111122 
SCCF RECON,ioos:station:SCCF:51:1,2010-10-06T15:00:00Z,26.5545,-82.1715,1.864,6.29,1111122 
SCCF RECON,ioos:station:SCCF:51:1,2010-10-06T16:00:00Z,26.5545,-82.1715,1.977,6.35,1111122 
SCCF RECON,ioos:station:SCCF:51:1,2010-10-06T17:00:00Z,26.5545,-82.1715,2.022,6.51,1111122 
SCCF RECON,ioos:station:SCCF:51:1,2010-10-06T18:00:00Z,26.5545,-82.1715,1.971,6.66,1111122 
SCCF RECON,ioos:station:SCCF:51:1,2010-10-06T19:00:00Z,26.5545,-82.1715,1.872,6.85,1111122 
SCCF RECON,ioos:station:SCCF:51:1,2010-10-06T20:00:00Z,26.5545,-82.1715,1.756,7.06,1111122 
SCCF RECON,ioos:station:SCCF:51:1,2010-10-06T21:00:00Z,26.5545,-82.1715,1.654,7.25,1111122 
SCCF RECON,ioos:station:SCCF:51:1,2010-10-06T22:00:00Z,26.5545,-82.1715,1.58,7.26,1111122 
SCCF RECON,ioos:station:SCCF:51:1,2010-10-06T23:00:00Z,26.5545,-82.1715,1.593,7.26,1111122 
SCCF RECON,ioos:station:SCCF:51:1,2010-10-07T00:00:00Z,26.5545,-82.1715,1.652,7.25,1111122 
SCCF RECON,ioos:station:SCCF:51:1,2010-10-07T01:00:00Z,26.5545,-82.1715,1.75,6.99,1111122 
SCCF RECON,ioos:station:SCCF:51:1,2010-10-07T02:00:00Z,26.5545,-82.1715,1.886,6.74,1111122 
SCCF RECON,ioos:station:SCCF:51:1,2010-10-07T03:00:00Z,26.5545,-82.1715,2.022,6.31,1111122 
SCCF RECON,ioos:station:SCCF:51:1,2010-10-07T04:00:00Z,26.5545,-82.1715,2.101,6.39,1111122 
SCCF RECON,ioos:station:SCCF:51:1,2010-10-07T05:00:00Z,26.5545,-82.1715,2.11,6.38,1111122 
SCCF RECON,ioos:station:SCCF:51:1,2010-10-07T06:00:00Z,26.5545,-82.1715,2.043,6.26,1111122 
SCCF RECON,ioos:station:SCCF:51:1,2010-10-07T07:00:00Z,26.5545,-82.1715,1.941,6.43,1111122 
SCCF RECON,ioos:station:SCCF:51:1,2010-10-07T08:00:00Z,26.5545,-82.1715,1.8,6.45,1111122 
SCCF RECON,ioos:station:SCCF:51:1,2010-10-07T09:00:00Z,26.5545,-82.1715,1.655,6.47,1111122 
SCCF RECON,ioos:station:SCCF:51:1,2010-10-07T10:00:00Z,26.5545,-82.1715,1.535,6.58,1111122 
SCCF RECON,ioos:station:SCCF:51:1,2010-10-07T11:00:00Z,26.5545,-82.1715,1.445,6.51,1111122 
SCCF RECON,ioos:station:SCCF:51:1,2010-10-07T12:00:00Z,26.5545,-82.1715,1.434,6.52,1111122 
SCCF RECON,ioos:station:SCCF:51:1,2010-10-07T13:00:00Z,26.5545,-82.1715,1.53,6.47,1111122 
SCCF RECON,ioos:station:SCCF:51:1,2010-10-07T14:00:00Z,26.5545,-82.1715,1.658,6.52,1111122 
SCCF RECON,ioos:station:SCCF:51:1,2010-10-07T15:00:00Z,26.5545,-82.1715,1.825,6.42,1111122 
SCCF RECON,ioos:station:SCCF:51:1,2010-10-07T16:00:00Z,26.5545,-82.1715,1.981,6.57,1111122 
SCCF RECON,ioos:station:SCCF:51:1,2010-10-07T17:00:00Z,26.5545,-82.1715,2.082,6.72,1111122 
SCCF RECON,ioos:station:SCCF:51:1,2010-10-07T18:00:00Z,26.5545,-82.1715,2.134,6.74,1111122 
SCCF RECON,ioos:station:SCCF:51:1,2010-10-07T19:00:00Z,26.5545,-82.1715,2.081,6.79,1111122 
SCCF RECON,ioos:station:SCCF:51:1,2010-10-07T20:00:00Z,26.5545,-82.1715,1.982,7.19,1111122 
SCCF RECON,ioos:station:SCCF:51:1,2010-10-07T21:00:00Z,26.5545,-82.1715,1.88,7.12,1111122 
SCCF RECON,ioos:station:SCCF:51:1,2010-10-07T22:00:00Z,26.5545,-82.1715,1.8,7.17,1111122 
SCCF RECON,ioos:station:SCCF:51:1,2010-10-07T23:00:00Z,26.5545,-82.1715,1.763,7.22,1111122 
SCCF RECON,ioos:station:SCCF:51:1,2010-10-08T00:00:00Z,26.5545,-82.1715,1.799,7.08,1111122 
SCCF RECON,ioos:station:SCCF:51:1,2010-10-08T01:00:00Z,26.5545,-82.1715,1.871,7.02,1111122 
SCCF RECON,ioos:station:SCCF:51:1,2010-10-08T02:00:00Z,26.5545,-82.1715,1.985,6.95,1111122 
SCCF RECON,ioos:station:SCCF:51:1,2010-10-08T03:00:00Z,26.5545,-82.1715,2.131,6.64,1111122 
SCCF RECON,ioos:station:SCCF:51:1,2010-10-08T04:00:00Z,26.5545,-82.1715,2.245,6.79,1111122 
SCCF RECON,ioos:station:SCCF:51:1,2010-10-08T05:00:00Z,26.5545,-82.1715,2.301,6.38,1111122 
SCCF RECON,ioos:station:SCCF:51:1,2010-10-08T06:00:00Z,26.5545,-82.1715,2.279,6.32,1111122 
SCCF RECON,ioos:station:SCCF:51:1,2010-10-08T07:00:00Z,26.5545,-82.1715,2.189,6.46,1111122 
SCCF RECON,ioos:station:SCCF:51:1,2010-10-08T08:00:00Z,26.5545,-82.1715,2.051,6.61,1111122 
SCCF RECON,ioos:station:SCCF:51:1,2010-10-08T09:00:00Z,26.5545,-82.1715,1.89,6.61,1111122 
SCCF RECON,ioos:station:SCCF:51:1,2010-10-08T10:00:00Z,26.5545,-82.1715,1.752,6.64,1111122 
SCCF RECON,ioos:station:SCCF:51:1,2010-10-08T11:00:00Z,26.5545,-82.1715,1.637,6.55,1111122 
SCCF RECON,ioos:station:SCCF:51:1,2010-10-08T12:00:00Z,26.5545,-82.1715,1.554,6.5,1111122 
SCCF RECON,ioos:station:SCCF:51:1,2010-10-08T13:00:00Z,26.5545,-82.1715,1.56,6.54,1111122 
SCCF RECON,ioos:station:SCCF:51:1,2010-10-08T14:00:00Z,26.5545,-82.1715,1.67,6.74,1111122 
SCCF RECON,ioos:station:SCCF:51:1,2010-10-08T15:00:00Z,26.5545,-82.1715,1.811,6.44,1111122 
SCCF RECON,ioos:station:SCCF:51:1,2010-10-08T16:00:00Z,26.5545,-82.1715,1.987,6.34,1111122 
SCCF RECON,ioos:station:SCCF:51:1,2010-10-08T17:00:00Z,26.5545,-82.1715,2.115,6.6,1111122 
SCCF RECON,ioos:station:SCCF:51:1,2010-10-08T18:00:00Z,26.5545,-82.1715,2.187,6.74,1111122 
SCCF RECON,ioos:station:SCCF:51:1,2010-10-08T19:00:00Z,26.5545,-82.1715,2.195,6.88,1111122 
SCCF RECON,ioos:station:SCCF:51:1,2010-10-08T20:00:00Z,26.5545,-82.1715,2.136,7.13,1111122 
SCCF RECON,ioos:station:SCCF:51:1,2010-10-08T21:00:00Z,26.5545,-82.1715,2.042,6.98,1111122 
SCCF RECON,ioos:station:SCCF:51:1,2010-10-08T22:00:00Z,26.5545,-82.1715,1.955,7.01,1111122 
SCCF RECON,ioos:station:SCCF:51:1,2010-10-08T23:00:00Z,26.5545,-82.1715,1.9,6.96,1111122 
SCCF RECON,ioos:station:SCCF:51:1,2010-10-09T00:00:00Z,26.5545,-82.1715,1.896,7.33,1111122 
SCCF RECON,ioos:station:SCCF:51:1,2010-10-09T01:00:00Z,26.5545,-82.1715,1.943,7.08,1111122 
SCCF RECON,ioos:station:SCCF:51:1,2010-10-09T02:00:00Z,26.5545,-82.1715,2.019,6.85,1111122 
SCCF RECON,ioos:station:SCCF:51:1,2010-10-09T03:00:00Z,26.5545,-82.1715,2.13,6.81,1111122 
SCCF RECON,ioos:station:SCCF:51:1,2010-10-09T04:00:00Z,26.5545,-82.1715,2.262,6.83,1111122 
SCCF RECON,ioos:station:SCCF:51:1,2010-10-09T05:00:00Z,26.5545,-82.1715,2.353,6.63,1111122 
SCCF RECON,ioos:station:SCCF:51:1,2010-10-09T06:00:00Z,26.5545,-82.1715,2.362,6.45,1111122 
SCCF RECON,ioos:station:SCCF:51:1,2010-10-09T07:00:00Z,26.5545,-82.1715,2.29,6.56,1111122 
SCCF RECON,ioos:station:SCCF:51:1,2010-10-09T08:00:00Z,26.5545,-82.1715,2.18,6.51,1111122 
SCCF RECON,ioos:station:SCCF:51:1,2010-10-09T09:00:00Z,26.5545,-82.1715,2.03,6.39,1111122 
SCCF RECON,ioos:station:SCCF:51:1,2010-10-09T10:00:00Z,26.5545,-82.1715,1.88,6.22,1111122 
SCCF RECON,ioos:station:SCCF:51:1,2010-10-09T11:00:00Z,26.5545,-82.1715,1.746,6.37,1111122 
SCCF RECON,ioos:station:SCCF:51:1,2010-10-09T12:00:00Z,26.5545,-82.1715,1.636,6.29,1111122 
SCCF RECON,ioos:station:SCCF:51:1,2010-10-09T13:00:00Z,26.5545,-82.1715,1.56,6.29,1111122 
SCCF RECON,ioos:station:SCCF:51:1,2010-10-09T14:00:00Z,26.5545,-82.1715,1.596,6.51,1111122 
SCCF RECON,ioos:station:SCCF:51:1,2010-10-09T15:00:00Z,26.5545,-82.1715,1.711,6.68,1111122 
SCCF RECON,ioos:station:SCCF:51:1,2010-10-09T16:00:00Z,26.5545,-82.1715,1.869,6.55,1111122 
SCCF RECON,ioos:station:SCCF:51:1,2010-10-09T17:00:00Z,26.5545,-82.1715,2.028,6.71,1111122 
SCCF RECON,ioos:station:SCCF:51:1,2010-10-09T18:00:00Z,26.5545,-82.1715,2.134,6.66,1111122 
SCCF RECON,ioos:station:SCCF:51:1,2010-10-09T19:00:00Z,26.5545,-82.1715,2.191,6.63,1111122 
SCCF RECON,ioos:station:SCCF:51:1,2010-10-09T20:00:00Z,26.5545,-82.1715,2.198,6.78,1111122 
SCCF RECON,ioos:station:SCCF:51:1,2010-10-09T21:00:00Z,26.5545,-82.1715,2.145,7.1,1111122 
SCCF RECON,ioos:station:SCCF:51:1,2010-10-09T22:00:00Z,26.5545,-82.1715,2.07,7.22,1111122 
SCCF RECON,ioos:station:SCCF:51:1,2010-10-09T23:00:00Z,26.5545,-82.1715,2.006,7.07,1111122 
SCCF RECON,ioos:station:SCCF:51:1,2010-10-10T00:00:00Z,26.5545,-82.1715,1.978,7.15,1111122 
SCCF RECON,ioos:station:SCCF:51:1,2010-10-10T01:00:00Z,26.5545,-82.1715,2.001,7.27,1111122 
SCCF RECON,ioos:station:SCCF:51:1,2010-10-10T02:00:00Z,26.5545,-82.1715,2.07,6.87,1111122 
SCCF RECON,ioos:station:SCCF:51:1,2010-10-10T03:00:00Z,26.5545,-82.1715,2.172,6.77,1111122 
SCCF RECON,ioos:station:SCCF:51:1,2010-10-10T04:00:00Z,26.5545,-82.1715,2.29,6.81,1111122 
SCCF RECON,ioos:station:SCCF:51:1,2010-10-10T05:00:00Z,26.5545,-82.1715,2.388,6.64,1111122 
SCCF RECON,ioos:station:SCCF:51:1,2010-10-10T06:00:00Z,26.5545,-82.1715,2.43,6.54,1111122 
SCCF RECON,ioos:station:SCCF:51:1,2010-10-10T07:00:00Z,26.5545,-82.1715,2.396,6.39,1111122 
SCCF RECON,ioos:station:SCCF:51:1,2010-10-10T08:00:00Z,26.5545,-82.1715,2.31,6.56,1111122 
SCCF RECON,ioos:station:SCCF:51:1,2010-10-10T09:00:00Z,26.5545,-82.1715,2.19,6.5,1111122 
SCCF RECON,ioos:station:SCCF:51:1,2010-10-10T10:00:00Z,26.5545,-82.1715,2.049,6.33,1111122 
SCCF RECON,ioos:station:SCCF:51:1,2010-10-10T11:00:00Z,26.5545,-82.1715,1.9,6.18,1111122 
SCCF RECON,ioos:station:SCCF:51:1,2010-10-10T12:00:00Z,26.5545,-82.1715,1.769,6.15,1111122 
SCCF RECON,ioos:station:SCCF:51:1,2010-10-10T13:00:00Z,26.5545,-82.1715,1.65,6.5,1111122 
SCCF RECON,ioos:station:SCCF:51:1,2010-10-10T14:00:00Z,26.5545,-82.1715,1.57,6.61,1111122 
SCCF RECON,ioos:station:SCCF:51:1,2010-10-10T15:00:00Z,26.5545,-82.1715,1.591,6.59,1111122 
SCCF RECON,ioos:station:SCCF:51:1,2010-10-10T16:00:00Z,26.5545,-82.1715,1.694,6.73,1111122 
SCCF RECON,ioos:station:SCCF:51:1,2010-10-10T17:00:00Z,26.5545,-82.1715,1.835,6.85,1111122 
SCCF RECON,ioos:station:SCCF:51:1,2010-10-10T18:00:00Z,26.5545,-82.1715,1.965,6.86,1111122 
SCCF RECON,ioos:station:SCCF:51:1,2010-10-10T19:00:00Z,26.5545,-82.1715,2.038,6.75,1111122 
SCCF RECON,ioos:station:SCCF:51:1,2010-10-10T20:00:00Z,26.5545,-82.1715,2.061,6.93,1111122 
SCCF RECON,ioos:station:SCCF:51:1,2010-10-10T21:00:00Z,26.5545,-82.1715,2.038,7.06,1111122 
SCCF RECON,ioos:station:SCCF:51:1,2010-10-10T22:00:00Z,26.5545,-82.1715,1.981,7.16,1111122 
SCCF RECON,ioos:station:SCCF:51:1,2010-10-10T23:00:00Z,26.5545,-82.1715,1.939,7.12,1111122 
SCCF RECON,ioos:station:SCCF:51:1,2010-10-11T00:00:00Z,26.5545,-82.1715,1.92,7.01,1111122 
SCCF RECON,ioos:station:SCCF:51:1,2010-10-11T01:00:00Z,26.5545,-82.1715,1.93,7.17,1111122 
SCCF RECON,ioos:station:SCCF:51:1,2010-10-11T02:00:00Z,26.5545,-82.1715,1.97,7.18,1111122 
SCCF RECON,ioos:station:SCCF:51:1,2010-10-11T03:00:00Z,26.5545,-82.1715,2.03,6.88,1111122 
SCCF RECON,ioos:station:SCCF:51:1,2010-10-11T04:00:00Z,26.5545,-82.1715,2.11,6.77,1111122 
SCCF RECON,ioos:station:SCCF:51:1,2010-10-11T05:00:00Z,26.5545,-82.1715,2.219,6.84,1111122 
SCCF RECON,ioos:station:SCCF:51:1,2010-10-11T06:00:00Z,26.5545,-82.1715,2.291,6.77,1111122 
SCCF RECON,ioos:station:SCCF:51:1,2010-10-11T07:00:00Z,26.5545,-82.1715,2.314,6.29,1111122 
SCCF RECON,ioos:station:SCCF:51:1,2010-10-11T08:00:00Z,26.5545,-82.1715,2.27,6.49,1111122 
SCCF RECON,ioos:station:SCCF:51:1,2010-10-11T09:00:00Z,26.5545,-82.1715,2.19,6.49,1111122 
SCCF RECON,ioos:station:SCCF:51:1,2010-10-11T10:00:00Z,26.5545,-82.1715,2.083,6.41,1111122 
SCCF RECON,ioos:station:SCCF:51:1,2010-10-11T11:00:00Z,26.5545,-82.1715,1.95,6.42,1111122 
SCCF RECON,ioos:station:SCCF:51:1,2010-10-11T12:00:00Z,26.5545,-82.1715,1.819,6.25,1111122 
SCCF RECON,ioos:station:SCCF:51:1,2010-10-11T13:00:00Z,26.5545,-82.1715,1.7,6.26,1111122 
SCCF RECON,ioos:station:SCCF:51:1,2010-10-11T14:00:00Z,26.5545,-82.1715,1.602,6.19,1111122 
SCCF RECON,ioos:station:SCCF:51:1,2010-10-11T15:00:00Z,26.5545,-82.1715,1.557,6.61,1111122 
SCCF RECON,ioos:station:SCCF:51:1,2010-10-11T16:00:00Z,26.5545,-82.1715,1.61,6.86,1111122 
SCCF RECON,ioos:station:SCCF:51:1,2010-10-11T17:00:00Z,26.5545,-82.1715,1.711,7.15,1111122 
SCCF RECON,ioos:station:SCCF:51:1,2010-10-11T18:00:00Z,26.5545,-82.1715,1.839,6.87,1111122 
SCCF RECON,ioos:station:SCCF:51:1,2010-10-11T19:00:00Z,26.5545,-82.1715,1.938,7.05,1111122 